Flag for Norway Weather past 2 weeks in Kolbotn, Norway

Now
52 °F

Partly sunny.


Feels Like: 44 °F
Forecast: 49 / 53 °F
Wind: 30 mph from Northwest

Location: Oslo / Fornebu

Current Time: Sep 4, 2015 at 9:04:08 PM

Latest Report: Sep 4, 2015 at 8:20 PM


Visibility: N/A

Pressure: 29.80 "Hg

Humidity: 82%

Dew point: 46 °F

Location of KolbotnLocation

Historic Weather in Kolbotn — Graph

°F

Kolbotn temperature yesterday

Maximum temperature yesterday: 55 °F (at 2:20 AM)
Minimum temperature yesterday: 54 °F (at 12:20 AM)
Average temperature yesterday: 54 °F

Past Weeks' High & Low Weather Summary

 TemperatureHumidityPressure
High70 °F (Aug 24, 5:20 AM)100% (Aug 21, 4:20 PM)30.15 "Hg (Aug 21, 4:20 PM)
Low50 °F (Sep 4, 9:50 AM)46% (Aug 23, 6:20 PM)29.33 "Hg (Aug 26, 11:50 PM)
Average58 °F85%29.82 "Hg
* Reported Aug 20 7:20 PM — Sep 4 7:50 PM, Kolbotn, Weather by CustomWeather, © 2015

Note: Actual official high and low records may vary slightly from our data, if they occured in-between our weather recording intervals... More about our weather records

Advertising

Kolbotn weather history for previous 24 hours

 ConditionsComfort  
Time TempWeatherWind HumidityBarometerVisibility
7:50 PM
Fri, Sep 4
52 °FPartly sunny.29 mph82%29.80 "HgN/A
7:20 PM52 °FPartly sunny.28 mph77%29.80 "HgN/A
6:50 PM52 °FPartly sunny.31 mph82%29.80 "HgN/A
6:20 PM52 °FLow clouds.30 mph88%29.80 "HgN/A
5:50 PM52 °FPartly sunny.32 mph94%29.80 "HgN/A
5:20 PM52 °FSprinkles. Fog.17 mph100%29.80 "Hg2 mi
4:50 PM52 °FPassing clouds.15 mph94%29.80 "HgN/A
4:20 PM52 °FSprinkles. Partly sunny.14 mph94%29.83 "HgN/A
3:50 PM52 °FOvercast.15 mph88%29.83 "HgN/A
3:20 PM52 °FPartly sunny.15 mph88%29.86 "HgN/A
2:50 PM52 °FPartly sunny.14 mph88%29.86 "HgN/A
2:20 PM52 °FPartly sunny.12 mph88%29.86 "HgN/A
1:50 PM54 °FScattered clouds.13 mph82%29.86 "HgN/A
1:20 PM52 °FOvercast.16 mph88%29.86 "HgN/A
12:50 PM52 °FOvercast.13 mph82%29.86 "HgN/A
12:20 PM52 °FPartly sunny.13 mph82%29.86 "HgN/A
11:50 AM52 °FPartly sunny.13 mph82%29.89 "HgN/A
11:20 AM52 °FPartly sunny.10 mph82%29.89 "HgN/A
10:50 AM52 °FBroken clouds.13 mph88%29.89 "HgN/A
10:20 AM52 °FPartly sunny.7 mph88%29.89 "HgN/A
9:50 AM50 °FPartly sunny.9 mph94%29.89 "HgN/A
9:20 AM52 °FPartly sunny.12 mph82%29.89 "HgN/A
8:50 AM52 °FBroken clouds.9 mph82%29.89 "HgN/A
8:20 AM52 °FOvercast.13 mph77%29.89 "HgN/A
7:50 AM52 °FOvercast.15 mph72%29.89 "HgN/A
7:20 AM52 °FOvercast.15 mph77%29.89 "HgN/A
6:50 AM52 °FOvercast.13 mph77%29.89 "HgN/A
6:20 AM52 °FPassing clouds.15 mph67%29.92 "HgN/A
5:50 AM52 °FOvercast.13 mph72%29.92 "HgN/A
5:20 AM52 °FOvercast.16 mph77%29.92 "HgN/A
4:50 AM52 °FOvercast.15 mph77%29.92 "HgN/A
4:20 AM52 °FOvercast.21 mph82%29.92 "HgN/A
3:50 AM54 °FOvercast.18 mph77%29.92 "HgN/A
3:20 AM54 °FOvercast.20 mph77%29.92 "HgN/A
2:50 AM54 °FOvercast.22 mph77%29.92 "HgN/A
2:20 AM54 °FOvercast.21 mph77%29.92 "HgN/A
1:50 AM54 °FOvercast.22 mph77%29.92 "HgN/A
1:20 AM54 °FOvercast.24 mph82%29.92 "HgN/A
12:50 AM54 °FOvercast.25 mph82%29.92 "HgN/A
12:20 AM54 °FPassing clouds.25 mph82%29.92 "HgN/A
11:50 PM
Thu, Sep 3
54 °FPassing clouds.24 mph82%29.92 "HgN/A
11:20 PM54 °FPassing clouds.25 mph88%29.92 "HgN/A
10:50 PM54 °FOvercast.26 mph88%29.92 "HgN/A
10:20 PM54 °FPassing clouds.29 mph88%29.92 "HgN/A
9:50 PM54 °FPassing clouds.29 mph88%29.89 "HgN/A
9:20 PM55 °FPassing clouds.30 mph88%29.89 "HgN/A
Weather by CustomWeather, © 2015

See weather overviewHow to use our weather pages